HAWK-7B

Last updated on Tue Sep 22 2026 00:03:52 GMT+0000 (Coordinated Universal Time)

1 56193U 23054R 26264.12694863 .00003985 00000+0 14757-3 0 9998 2 56193 97.2568 147.2986 0003809 79.1672 280.9996 15.28211075191671
UTC large
Height (km)
Speed (km/s)
/
Latitude / Longitude
Inclination (degrees)
Orbital Period (minutes)
Azimuth
Elevation
Range (km)
Doppler Factor

Next 0 passes for location: London (51.5072 / 0.1276)

No passes found over London.
HAWK-7B